Zurück zum Katalog

SL-12 R/B(2)

AktivHEO
NORAD 27429·ROCKET BODY·🇷🇺 Russia

Gestartet May 7, 2002 von Baikonur Cosmodrome

Loading…

Nächste Überflüge (nächste 24 Stunden)

TLE

AktuellSource: Space-Track

Epoche: Sep 9, 2026, 15:35 UTC

1 27429U 02023D   26252.64933836  .00000008  00000-0  00000-0 0  9998
2 27429  16.7065 183.7114 5419755  92.4544 138.4937  1.90581544169558

Verfolge SL-12 R/B(2) in Echtzeit mit AllMySat

Download on the App Store